Lyndonville, VT

6:41 AM EDT on April 23, 2018 (GMT -0400)
Lyndonville

Weather History for KCDA - March, 2013

Change the Weather History Date:

Saturday, March 9, 2013

  Actual Average (K1V4) Record (K1V4)
Temperature  
Mean Temperature 34 °F -  
Max Temperature 47 °F 32 °F 66 °F (2016)
Min Temperature 22 °F 14 °F -22 °F (1923)
Degree Days  
Heating Degree Days 30    
Moisture  
Dew Point 17 °F    
Average Humidity 52    
Maximum Humidity 85    
Minimum Humidity 25    
Precipitation  
Precipitation 0.00 in - - ()
Sea Level Pressure  
Sea Level Pressure 30.28 in    
Wind  
Wind Speed 2 mph (NNW)    
Max Wind Speed 9 mph    
Max Gust Speed -    
Visibility 10 miles    
Events      
Averages and records for this station are not official NWS values.
T = Trace of Precipitation, MM = Missing Value Source: NWS Daily Summary

Daily Weather History Graph

Daily Weather History Graph

Search for Another Location

Airport or City:

Astronomy

Mar. 09, 2013 Rise Set
Actual Time 6:10 AM EST 5:46 PM EST
Civil Twilight 5:41 AM EST 6:15 PM EST
Nautical Twilight 5:08 AM EST 6:49 PM EST
Astronomical Twilight 4:34 AM EST 7:23 PM EST
Moon 4:37 AM EST (3/9) 3:42 PM EST (3/9)
Length of Visible Light 12h 33m
Length of Day
11h 35m
Waning Crescent, 5% of the Moon is Illuminated
Mar 9
Waning Crescent
Mar 11
New
Mar 19
First Quarter
Mar 27
Full
Apr 3
Last Quarter

Hourly Weather History & Observations

Time (EST) Temp. Windchill Dew Point Humidity Pressure Visibility Wind Dir Wind Speed Gust Speed Precip Events Conditions
12:15 AM 29.8 °F 26.3 °F 20.3 °F 68% 30.26 in 10.0 mi NW 3.5 mph - N/A   Unknown
12:35 AM 28.4 °F - 19.6 °F 70% 30.26 in 10.0 mi Calm Calm - N/A   Unknown
12:55 AM 28.6 °F 22.4 °F 19.9 °F 70% 30.27 in 10.0 mi NW 5.8 mph - N/A   Unknown
1:15 AM 29.3 °F - 19.4 °F 67% 30.27 in 10.0 mi Calm Calm - N/A   Unknown
1:35 AM 26.8 °F - 19.9 °F 75% 30.26 in 10.0 mi Calm Calm - N/A   Unknown
1:55 AM 27.7 °F 23.8 °F 20.3 °F 74% 30.25 in 10.0 mi NNW 3.5 mph - N/A   Unknown
2:15 AM 27.5 °F - 20.5 °F 75% 30.25 in 10.0 mi Calm Calm - N/A   Unknown
2:35 AM 27.1 °F - 19.8 °F 74% 30.24 in 10.0 mi Calm Calm - N/A   Unknown
2:55 AM 26.2 °F - 19.2 °F 75% 30.24 in 10.0 mi Calm Calm - N/A   Unknown
3:15 AM 25.7 °F - 19.9 °F 79% 30.24 in 10.0 mi Calm Calm - N/A   Unknown
3:35 AM 27.1 °F 23.2 °F 19.4 °F 73% 30.25 in 10.0 mi WNW 3.5 mph - N/A   Unknown
3:55 AM 23.9 °F - 17.8 °F 77% 30.25 in 10.0 mi Calm Calm - N/A   Unknown
4:15 AM 22.6 °F 18.0 °F 16.5 °F 77% 30.26 in 10.0 mi ENE 3.5 mph - N/A   Unknown
4:35 AM 22.8 °F - 18.0 °F 82% 30.26 in 10.0 mi Calm Calm - N/A   Unknown
4:55 AM 24.1 °F - 19.9 °F 84% 30.27 in 10.0 mi Calm Calm - N/A   Unknown
5:15 AM 23.7 °F 19.3 °F 19.4 °F 84% 30.27 in 10.0 mi NE 3.5 mph - N/A   Unknown
5:35 AM 23.5 °F - 19.8 °F 85% 30.28 in 10.0 mi Calm Calm - N/A   Unknown
5:55 AM 23.2 °F 18.7 °F 18.3 °F 82% 30.28 in 10.0 mi ENE 3.5 mph - N/A   Unknown
6:15 AM 23.9 °F - 19.2 °F 82% 30.30 in 10.0 mi Calm Calm - N/A   Unknown
6:35 AM 25.2 °F - 19.4 °F 79% 30.30 in 10.0 mi Calm Calm - N/A   Unknown
6:55 AM 24.3 °F - 19.2 °F 81% 30.30 in 10.0 mi Calm Calm - N/A   Unknown
7:15 AM 25.3 °F - 19.4 °F 78% 30.30 in 10.0 mi Calm Calm - N/A   Unknown
7:35 AM 25.3 °F - 19.4 °F 78% 30.30 in 10.0 mi Calm Calm - N/A   Unknown
7:55 AM 26.2 °F - 19.4 °F 75% 30.30 in 10.0 mi Calm Calm - N/A   Unknown
8:15 AM 28.6 °F - 19.4 °F 69% 30.30 in 10.0 mi Calm Calm - N/A   Unknown
8:35 AM 29.8 °F - 19.4 °F 65% 30.30 in 10.0 mi Calm Calm - N/A   Unknown
8:55 AM 30.6 °F - 19.2 °F 63% 30.30 in 10.0 mi Calm Calm - N/A   Unknown
9:15 AM 32.0 °F - 19.8 °F 61% 30.30 in 10.0 mi Calm Calm - N/A   Unknown
9:35 AM 34.3 °F - 19.6 °F 55% 30.30 in 10.0 mi Calm Calm - N/A   Unknown
9:55 AM 36.3 °F - 19.2 °F 50% 30.30 in 10.0 mi Calm Calm - N/A   Unknown
10:15 AM 38.7 °F - 18.1 °F 44% 30.30 in 10.0 mi Calm Calm - N/A   Unknown
10:35 AM 39.7 °F - 18.0 °F 42% 30.30 in 10.0 mi Calm Calm - N/A   Unknown
10:55 AM 41.2 °F - 17.2 °F 38% 30.29 in 10.0 mi Calm Calm - N/A   Unknown
11:15 AM 42.6 °F 39.0 °F 13.8 °F 31% 30.29 in 10.0 mi NW 5.8 mph - N/A   Unknown
11:35 AM 43.5 °F 39.4 °F 11.8 °F 28% 30.29 in 10.0 mi North 6.9 mph - N/A   Unknown
11:55 AM 44.6 °F 41.4 °F 12.4 °F 27% 30.28 in 10.0 mi NNW 5.8 mph - N/A   Unknown
12:15 PM 45.1 °F 42.8 °F 11.1 °F 25% 30.28 in 10.0 mi NNW 4.6 mph - N/A   Unknown
12:35 PM 45.5 °F 40.8 °F 12.0 °F 26% 30.28 in 10.0 mi NW 9.2 mph - N/A   Unknown
12:55 PM 45.5 °F 41.3 °F 12.6 °F 26% 30.28 in 10.0 mi NNW 8.1 mph - N/A   Unknown
1:15 PM 46.0 °F 41.9 °F 12.2 °F 26% 30.27 in 10.0 mi NNW 8.1 mph - N/A   Unknown
1:35 PM 46.2 °F 43.3 °F 12.2 °F 25% 30.26 in 10.0 mi NW 5.8 mph - N/A   Unknown
1:55 PM 46.4 °F 43.5 °F 11.7 °F 25% 30.26 in 10.0 mi NW 5.8 mph - N/A   Unknown
2:15 PM 46.8 °F - 14.0 °F 27% 30.26 in 10.0 mi North 6.9 mph - N/A   Unknown
2:35 PM 47.1 °F - 12.4 °F 25% 30.26 in 10.0 mi North 8.1 mph - N/A   Unknown
2:55 PM 46.9 °F - 13.6 °F 26% 30.26 in 10.0 mi NNW 8.1 mph - N/A   Unknown
3:15 PM 47.1 °F - 14.7 °F 27% 30.26 in 10.0 mi NW 8.1 mph - N/A   Unknown
3:35 PM 46.9 °F - 14.2 °F 27% 30.27 in 10.0 mi NNW 8.1 mph - N/A   Unknown
3:55 PM 46.0 °F 41.9 °F 13.8 °F 27% 30.27 in 10.0 mi NNW 8.1 mph - N/A   Unknown
4:15 PM 46.4 °F 42.9 °F 13.1 °F 26% 30.27 in 10.0 mi NNW 6.9 mph - N/A   Unknown
4:35 PM 45.9 °F 41.2 °F 12.9 °F 27% 30.27 in 10.0 mi NNW 9.2 mph - N/A   Unknown
4:55 PM 45.7 °F 43.4 °F 12.4 °F 26% 30.28 in 10.0 mi NNW 4.6 mph - N/A   Unknown
5:15 PM 45.1 °F 42.8 °F 13.3 °F 28% 30.28 in 10.0 mi NW 4.6 mph - N/A   Unknown
5:35 PM 43.9 °F 41.3 °F 12.9 °F 29% 30.29 in 10.0 mi NW 4.6 mph - N/A   Unknown
5:55 PM 42.1 °F 39.2 °F 13.5 °F 31% 30.29 in 10.0 mi NW 4.6 mph - N/A   Unknown
6:15 PM 41.2 °F - 14.4 °F 34% 30.30 in 10.0 mi Calm Calm - N/A   Unknown
6:35 PM 41.0 °F - 13.5 °F 33% 30.30 in 10.0 mi Calm Calm - N/A   Unknown
6:55 PM 39.6 °F - 14.4 °F 36% 30.30 in 10.0 mi Calm Calm - N/A   Unknown
7:15 PM 38.7 °F - 15.3 °F 39% 30.30 in 10.0 mi Calm Calm - N/A   Unknown
7:35 PM 39.2 °F - 14.4 °F 36% 30.30 in 10.0 mi Calm Calm - N/A   Unknown
7:55 PM 37.8 °F 34.2 °F 16.3 °F 42% 30.31 in 10.0 mi NW 4.6 mph - N/A   Unknown
8:15 PM 37.6 °F - 16.5 °F 42% 30.32 in 10.0 mi Calm Calm - N/A   Unknown
8:35 PM 34.0 °F 31.0 °F 17.1 °F 50% 30.32 in 10.0 mi East 3.5 mph - N/A   Unknown
8:55 PM 34.5 °F 31.6 °F 17.2 °F 49% 30.31 in 10.0 mi ENE 3.5 mph - N/A   Unknown
9:15 PM 35.1 °F 31.0 °F 16.7 °F 47% 30.30 in 10.0 mi North 4.6 mph - N/A   Unknown
9:35 PM 37.0 °F - 15.6 °F 42% 30.31 in 10.0 mi Calm Calm - N/A   Unknown
9:55 PM 34.5 °F 31.6 °F 16.7 °F 48% 30.31 in 10.0 mi West 3.5 mph - N/A   Unknown
10:15 PM 32.9 °F - 17.1 °F 52% 30.31 in 10.0 mi Calm Calm - N/A   Unknown
10:35 PM 31.5 °F - 16.9 °F 55% 30.31 in 10.0 mi Calm Calm - N/A   Unknown
10:55 PM 29.7 °F - 18.5 °F 63% 30.30 in 10.0 mi Calm Calm - N/A   Unknown
11:15 PM 31.3 °F - 18.0 °F 58% 30.30 in 10.0 mi Calm Calm - N/A   Unknown
11:35 PM 30.2 °F 26.7 °F 17.4 °F 59% 30.31 in 10.0 mi West 3.5 mph - N/A   Unknown
11:55 PM 29.8 °F 26.3 °F 17.6 °F 60% 30.31 in 10.0 mi West 3.5 mph - N/A   Unknown